Overview Statistics Trail Chart Weather Telemetry Raw packets
 

This is the latest recevied weather packets stored in our database for station/object VK4AB-13. If no packets are shown the sender has not sent any weather packets the latest 10 day(s).

<< 2 3 4 5 6 7 8 >>
Time Temp. Humidity Pressure Rain* Wind** Luminosity Snow
1788575271 30° C 48% 1016.9 hPa 0 mm - 773 W/m² -
1788574971 30° C 48% 1017.1 hPa 0 mm - 775 W/m² -
1788574672 30° C 48% 1017.3 hPa 0 mm - 782 W/m² -
1788574372 29.44° C 47% 1017.4 hPa 0 mm - 780 W/m² -
1788574072 30° C 46% 1017.5 hPa 0 mm - 791 W/m² -
1788573815 29.44° C 49% 1017.6 hPa 0 mm - 791 W/m² -
1788573772 29.44° C 49% 1017.6 hPa 0 mm - 791 W/m² -
1788573472 29.44° C 49% 1017.8 hPa 0 mm - 795 W/m² -
1788573172 28.89° C 50% 1018 hPa 0 mm - 793 W/m² -
1788572872 28.33° C 52% 1018.1 hPa 0 mm - 795 W/m² -
1788572572 28.33° C 53% 1018.2 hPa 0 mm - 795 W/m² -
1788572272 27.78° C 55% 1018.4 hPa 0 mm - 795 W/m² -
1788571972 27.22° C 57% 1018.5 hPa 0 mm - 53 W/m² -
1788571672 26.67° C 59% 1018.6 hPa 0 mm - 53 W/m² -
1788571372 26.67° C 60% 1018.8 hPa 0 mm - 53 W/m² -
1788571072 26.11° C 60% 1019 hPa 0 mm - 780 W/m² -
1788570772 26.67° C 60% 1019.1 hPa 0 mm - 54 W/m² -
1788570472 26.11° C 61% 1019.1 hPa 0 mm - 176 W/m² -
1788570172 26.11° C 61% 1019.2 hPa 0 mm - 54 W/m² -
1788569872 26.11° C 61% 1019.3 hPa 0 mm - 666 W/m² -
1788569572 25.56° C 63% 1019.4 hPa 0 mm - 95 W/m² -
1788569272 25° C 64% 1019.6 hPa 0 mm - 53 W/m² -
1788568972 25° C 65% 1019.7 hPa 0 mm - 53 W/m² -
1788568672 25° C 65% 1019.8 hPa 0 mm - 587 W/m² -
1788568372 24.44° C 65% 1020 hPa 0 mm - 735 W/m² -

* Rain latest hour (hover to see other rain measurements)
** Current wind speed in m/s (hover to see current wind gust speed)